Weather History for White Plains, NY

Change the Weather History Date:

Saturday, August 11, 2012

  Actual Average Record
Temperature  
Mean Temperature 76 °F -  
Max Temperature 84 °F 80 °F 91 °F (1988)
Min Temperature 69 °F 63 °F 53 °F (1974)
Cooling Degree Days 12    
Growing Degree Days 26 (Base 50)    
Moisture  
Dew Point 71 °F    
Average Humidity 84    
Maximum Humidity 100    
Minimum Humidity 63    
Precipitation  
Precipitation 0.00 in - - ()
Sea Level Pressure  
Sea Level Pressure 29.84 in    
Wind  
Wind Speed 3 mph (SSE)    
Max Wind Speed 16 mph    
Max Gust Speed 22 mph    
Visibility 6 miles    
Events Fog , Thunderstorm    
Averages and records for this station are not official NWS values.
T = Trace of Precipitation, MM = Missing Value Source: NWS Daily Summary

Daily Weather History Graph

Daily Weather History Graph

Search for Another Location

Airport:

Trip Planner

Search our weather history database for the weather conditions in past years. The results will help you decide how hot, cold, wet, or windy it might be!

Date:

Astronomy

Aug. 11, 2012 Rise Set
Actual Time 6:00 AM EDT 7:58 PM EDT
Civil Twilight 5:31 AM EDT 8:28 PM EDT
Nautical Twilight 4:54 AM EDT 9:04 PM EDT
Astronomical Twilight 4:14 AM EDT 9:43 PM EDT
Moon 12:26 AM EDT (8/11) 3:31 PM EDT (8/11)
Length of Visible Light 14h 57m
Length of Day
13h 57m
Waning Crescent, 33% of the Moon is Illuminated
Aug 11
Waning Crescent
Aug 17
New
Aug 24
First Quarter
Aug 31
Full
Sep 8
Last Quarter

Hourly Weather History & Observations

Time (EDT) Temp. Heat Index Dew Point Humidity Pressure Visibility Wind Dir Wind Speed Gust Speed Precip Events Conditions
12:56 AM 71.1 °F - 70.0 °F 96% 29.80 in 3.0 mi Calm Calm - N/A Fog Shallow Fog
1:56 AM 72.0 °F - 70.0 °F 93% 29.81 in 7.0 mi Calm Calm - N/A Fog Scattered Clouds
2:56 AM 70.0 °F - 69.1 °F 97% 29.80 in 5.0 mi Calm Calm - N/A Fog Partly Cloudy
3:56 AM 70.0 °F - 69.1 °F 97% 29.81 in 2.5 mi Calm Calm - 0.00 in Fog Scattered Clouds
3:58 AM 69.8 °F - 69.8 °F 100% 29.82 in 2.5 mi Calm Calm - N/A Fog Scattered Clouds
4:56 AM 71.1 °F - 70.0 °F 96% 29.80 in 2.0 mi Calm Calm - N/A Fog Mostly Cloudy
5:47 AM 69.8 °F - 69.8 °F 100% 29.83 in 0.5 mi Calm Calm - N/A Fog Fog
5:56 AM 71.1 °F - 70.0 °F 96% 29.82 in 0.2 mi Calm Calm - N/A Fog Fog
6:32 AM 71.6 °F - 71.6 °F 100% 29.84 in 1.0 mi Calm Calm - N/A   Mostly Cloudy
6:56 AM 72.0 °F - 71.1 °F 97% 29.83 in 0.5 mi Calm Calm - N/A   Mist
7:56 AM 73.0 °F - 72.0 °F 96% 29.84 in 0.8 mi ENE 4.6 mph - N/A   Mostly Cloudy
8:56 AM 75.0 °F - 73.0 °F 94% 29.84 in 6.0 mi ESE 4.6 mph - N/A   Overcast
9:56 AM 78.1 °F - 73.0 °F 84% 29.85 in 6.0 mi Variable 3.5 mph - N/A   Haze
10:12 AM 78.8 °F - 73.4 °F 83% 29.87 in 6.0 mi SE 4.6 mph - N/A Thunderstorm Overcast
10:56 AM 79.0 °F - 72.0 °F 79% 29.85 in 7.0 mi SSE 6.9 mph - N/A Thunderstorm Mostly Cloudy
11:56 AM 82.0 °F 86.7 °F 72.0 °F 71% 29.85 in 9.0 mi South 6.9 mph - N/A   Mostly Cloudy
12:29 PM 82.4 °F 88.2 °F 73.4 °F 74% 29.86 in 10.0 mi South 8.1 mph - N/A   Scattered Clouds
12:56 PM 82.9 °F 88.0 °F 72.0 °F 69% 29.84 in 10.0 mi SSE 10.4 mph 18.4 mph N/A   Mostly Cloudy
1:56 PM 84.9 °F 90.1 °F 71.1 °F 63% 29.83 in 10.0 mi South 13.8 mph 18.4 mph N/A   Scattered Clouds
2:56 PM 84.0 °F 88.4 °F 70.0 °F 63% 29.83 in 10.0 mi SSE 16.1 mph 20.7 mph N/A   Scattered Clouds
3:56 PM 84.0 °F 89.0 °F 71.1 °F 65% 29.83 in 10.0 mi South 13.8 mph 21.9 mph N/A   Scattered Clouds
4:56 PM 82.9 °F 88.8 °F 73.0 °F 72% 29.82 in 10.0 mi SSE 10.4 mph 17.3 mph N/A   Scattered Clouds
5:56 PM 82.0 °F 86.3 °F 71.1 °F 69% 29.83 in 10.0 mi South 9.2 mph 20.7 mph N/A   Scattered Clouds
6:56 PM 80.1 °F 83.6 °F 71.1 °F 74% 29.84 in 10.0 mi South 9.2 mph - N/A   Scattered Clouds
7:56 PM 78.1 °F - 70.0 °F 76% 29.86 in 10.0 mi South 8.1 mph - N/A   Scattered Clouds
8:56 PM 77.0 °F - 69.1 °F 76% 29.88 in 10.0 mi South 5.8 mph - N/A   Scattered Clouds
9:56 PM 75.9 °F - 69.1 °F 79% 29.90 in 10.0 mi South 5.8 mph - N/A   Clear
10:56 PM 75.0 °F - 70.0 °F 84% 29.89 in 10.0 mi South 4.6 mph - N/A   Clear
11:56 PM 75.0 °F - 70.0 °F 84% 29.89 in 10.0 mi SSE 3.5 mph - N/A   Partly Cloudy